This is the latest recevied weather packets stored in our database for station/object Waldburg. If no packets are shown the sender has not sent any weather packets the latest 10 day(s).
| Time | Temp. | Humidity | Pressure | Rain* | Wind** | Luminosity | Snow |
|---|---|---|---|---|---|---|---|
| 1778052731 | 11.67° C | 91% | 1005.2 hPa | 0.25 mm | - | - | - |
| 1778050932 | 11.11° C | 93% | 1005 hPa | 0.25 mm | - | - | - |
| 1778049131 | 10° C | 94% | 1005.7 hPa | 0.25 mm | - | - | - |
| 1778047331 | 9.44° C | 94% | 1005.4 hPa | 0.25 mm | - | - | - |
| 1778045531 | 8.89° C | 94% | 1005.3 hPa | 0.25 mm | - | - | - |
| 1778043731 | 8.33° C | 93% | 1005.6 hPa | 0.25 mm | - | - | - |
| 1778041932 | 8.33° C | 93% | 1005.6 hPa | 0.25 mm | - | - | - |
| 1778040131 | 8.33° C | 92% | 1005.9 hPa | 0 mm | - | - | - |
| 1778038331 | 8.33° C | 91% | 1006.1 hPa | 0 mm | - | - | - |
| 1778036532 | 8.89° C | 91% | 1006.3 hPa | 0 mm | - | - | - |
| 1778034732 | 8.89° C | 92% | 1006.7 hPa | 0 mm | - | - | - |
| 1778032932 | 8.89° C | 93% | 1006.9 hPa | 0 mm | - | - | - |
| 1778031131 | 8.89° C | 93% | 1007 hPa | 0 mm | - | - | - |
| 1778029332 | 8.89° C | 93% | 1007.1 hPa | 0 mm | - | - | - |
| 1778027529 | 8.89° C | 93% | 1007.7 hPa | 0 mm | - | - | - |
| 1778025729 | 9.44° C | 92% | 1007.5 hPa | 0 mm | - | - | - |
| 1778023929 | 9.44° C | 92% | 1008 hPa | 0 mm | - | - | - |
| 1778022129 | 9.44° C | 92% | 1007.7 hPa | 0 mm | - | - | - |
| 1778020330 | 10° C | 93% | 1008.2 hPa | 0 mm | - | - | - |
| 1778018529 | 10° C | 93% | 1008.1 hPa | 0 mm | - | - | - |
| 1778016731 | 10° C | 93% | 1008.1 hPa | 1.78 mm | - | - | - |
| 1778014935 | 10° C | 93% | 1008.1 hPa | 1.78 mm | - | - | - |
| 1778013129 | 10.56° C | 92% | 1008.3 hPa | 1.78 mm | - | - | - |
| 1778011330 | 10.56° C | 92% | 1008.1 hPa | 1.78 mm | - | - | - |
| 1778009529 | 10.56° C | 91% | 1008.1 hPa | 1.78 mm | - | - | - |
* Rain since midnight (hover to see other rain measurements)
** Current wind speed in m/s (hover to see current wind gust speed)